Location: Étavigny
(49.1201°N, 2.9800°E)
Time: 15:37:31
(UTC+00:00)

Cosmos 1867 - Pass Details

Date: 28 January 2023
Orbit: 778 x 797 km, 65.0° (Epoch: 26 March)

Event Time Altitude Azimuth Distance (km) Brightness Sun altitude
Rises 17:34:12 0° 320° (NW) 3,311 7.1 -9.4°
Reaches altitude 10° 17:36:38 10° 320° (NW) 2,378 6.4 -9.7°
Maximum altitude 17:42:07 83° 234° (SW) 810 3.7 -10.6°
Drops below altitude 10° 17:47:34 10° 147° (SSE) 2,361 5.8 -11.5°
Sets 17:49:58 0° 146° (SE) 3,285 6.6 -11.8°
